Theta_e
305 306 305 305 306 304 303 300 292 303 306 293 292 286 287 291 290 293 292 292 290 288 289 287 287 287 291 296 294 288 294 293 288 293 300 302 298 297 297 291 292 295 295 297
306 306 305 305 305 304 301 295 297 304 302 285 285 290 288 290 290 291 291 289 291 293 289 284 288 289 296 297 289 290 293 291 284 287 294 297 296 298 299 300 299 294 292 296
305 305 305 305 304 304 303 295 290 296 298 294 287 285 288 287 293 292 292 291 293 290 287 290 286 287 292 295 293 300 296 290 289 288 290 294 292 297 298 298 293 295 296 299
304 305 305 304 304 304 303 295 290 291 287 289 287 288 288 285 285 291 292 290 291 287 283 284 288 290 289 293 295 294 291 286 296 298 297 296 297 297 297 295 296 293 301 301
303 304 305 304 304 304 300 292 290 293 288 291 288 289 287 286 287 288 288 288 290 288 285 287 283 287 287 287 294 291 292 287 294 295 297 296 294 297 297 298 297 299 303 300
303 303 303 304 305 304 299 297 298 292 288 290 288 287 287 287 290 291 291 289 288 287 289 291 291 291 291 290 288 288 288 288 293 290 295 294 288 296 296 298 301 303 299 300
303 303 303 304 305 304 303 302 295 289 287 289 288 289 290 289 289 286 291 293 290 294 296 296 298 297 294 293 292 292 288 287 292 288 292 286 296 303 302 298 301 307 303 302
303 303 303 303 304 305 303 304 297 291 284 288 290 290 289 290 292 291 292 295 297 301 294 290 291 295 296 296 296 295 293 292 291 289 290 294 297 300 299 299 298 307 304 300
303 303 303 303 304 305 304 302 306 295 287 290 292 288 290 287 287 289 292 297 302 298 291 289 286 287 290 291 293 299 296 295 292 297 290 287 297 305 307 305 294 308 305 300
303 303 303 303 304 305 305 303 307 297 289 292 293 289 288 291 289 287 290 292 293 299 290 288 288 287 292 289 289 290 290 294 293 295 293 295 305 307 310 294 299 308 304 305
302 302 303 303 304 305 306 301 306 301 292 293 296 296 292 294 292 287 292 290 292 290 289 289 289 287 290 289 293 289 290 295 294 298 293 289 307 307 299 306 308 305 305 302
302 302 302 303 304 305 305 300 306 307 295 294 302 302 303 302 300 294 292 291 289 290 289 291 289 288 291 289 286 295 292 297 295 293 291 302 310 310 313 311 307 302 301 302
302 302 302 303 304 304 304 302 303 301 295 296 301 301 306 306 304 305 292 293 294 294 295 290 291 287 291 287 290 295 299 303 295 295 295 301 307 312 312 308 304 301 301 301
301 302 303 303 304 304 304 302 303 300 295 289 298 306 304 308 306 303 302 299 298 296 295 290 290 289 295 290 289 293 294 298 293 292 295 298 302 305 305 304 303 301 302 299
301 302 303 304 304 304 304 304 304 305 295 290 293 301 306 306 305 302 303 300 295 293 292 292 291 293 292 293 293 289 292 295 295 290 296 296 298 303 304 301 299 300 298 297
301 302 303 304 304 304 304 300 308 308 302 293 288 302 303 305 306 304 304 302 297 296 294 293 294 297 294 290 287 290 294 296 298 292 295 295 296 300 302 301 300 298 297 298
301 303 303 304 305 307 301 300 304 304 304 294 289 292 303 306 305 305 305 304 300 297 293 292 294 294 296 290 286 289 293 294 294 295 294 291 293 291 295 295 294 295 294 295
302 304 303 303 305 305 303 307 306 307 301 298 289 293 298 305 299 298 303 298 300 296 294 295 293 294 293 287 285 291 293 293 293 293 293 293 294 295 294 296 295 295 294 295
303 302 303 307 305 304 304 305 306 307 300 291 291 290 290 303 299 301 300 300 291 298 291 293 294 289 285 287 291 293 296 293 292 294 295 296 296 297 297 296 296 294 294 294
302 303 301 299 304 303 305 303 299 298 298 297 292 298 290 298 298 297 295 297 293 290 293 298 290 287 294 296 299 300 300 299 297 294 293 294 294 294 295 295 295 294 293 293
302 299 298 303 305 304 301 297 296 299 295 299 298 297 294 302 293 293 297 293 294 289 291 291 288 286 292 298 299 301 302 302 301 300 298 297 296 294 293 294 294 294 294 292
298 297 299 299 300 297 292 293 296 294 291 297 295 297 299 299 302 296 296 292 293 287 296 292 287 289 297 297 297 298 298 299 299 299 297 297 297 296 296 295 295 295 294 293
300 296 293 296 296 288 287 282 291 293 295 295 296 295 299 301 301 297 295 291 289 296 291 288 288 294 297 299 299 299 300 299 299 298 298 298 297 297 297 296 296 296 294 293
294 290 286 292 289 293 293 293 292 297 296 296 298 296 297 300 297 297 290 294 295 288 287 285 294 296 299 300 300 299 299 300 300 299 299 298 297 297 297 297 297 296 294 294
291 292 288 291 298 299 299 299 297 300 298 298 297 298 300 298 295 297 294 290 286 288 288 289 296 300 300 300 299 299 300 301 300 300 299 298 297 297 297 298 298 297 295 294
292 292 293 298 297 295 297 298 297 302 300 300 299 294 293 291 293 290 287 287 285 288 292 295 298 299 302 297 300 301 302 302 302 300 299 298 298 298 298 299 298 297 296 294
292 293 299 298 299 298 296 298 301 305 300 293 293 288 289 294 291 288 291 289 291 293 295 298 301 298 297 302 302 300 301 302 302 301 300 300 300 300 299 297 298 299 297 296
Wind_Speed
22 22 24 27 28 28 12 7 5 10 13 7 6 9 14 15 15 18 6 9 9 5 19 13 8 9 8 13 13 5 6 5 2 27 8 20 20 23 27 11 16 14 8 10
22 20 23 25 28 27 13 10 3 4 8 7 10 12 13 10 21 16 7 9 7 12 12 10 11 9 13 13 11 4 3 6 6 6 6 6 10 27 28 19 7 11 9 10
20 21 21 23 25 27 12 7 6 4 5 6 13 17 11 15 18 14 19 14 12 16 19 7 14 14 13 23 15 9 9 4 8 9 17 14 15 21 28 19 10 12 4 18
20 20 19 21 22 26 11 6 6 5 8 10 15 14 12 22 16 8 16 7 16 22 10 15 4 20 13 12 4 14 6 4 8 6 22 13 22 27 29 20 17 5 18 18
20 20 19 20 20 27 3 6 5 5 9 12 15 11 11 17 22 20 14 10 21 20 11 12 17 16 9 7 9 15 10 7 7 17 22 15 12 24 22 17 7 7 19 17
18 19 19 18 19 16 5 2 5 3 11 9 11 9 17 21 22 11 13 19 22 17 11 12 20 18 13 13 11 6 6 7 5 4 20 19 3 19 22 10 17 11 18 14
17 17 18 17 18 13 5 4 3 3 9 13 14 18 19 22 21 13 23 19 8 13 23 22 15 13 13 12 12 9 6 7 4 9 16 8 11 19 28 15 11 20 22 18
18 18 17 18 17 16 8 5 3 2 7 13 15 20 19 18 18 15 19 16 16 18 12 5 8 3 5 5 5 9 11 4 3 3 1 21 13 11 26 17 11 23 21 24
17 16 16 17 17 17 7 7 4 3 5 6 20 18 14 14 11 10 9 16 17 8 3 3 4 5 6 5 3 6 5 2 3 10 6 5 13 11 6 19 8 24 28 25
17 16 16 16 17 17 10 7 2 4 5 9 13 12 10 7 6 6 10 10 8 9 5 4 5 4 5 6 6 4 3 1 2 5 6 7 9 2 11 16 11 21 19 20
18 18 17 17 18 17 10 8 9 5 4 14 9 10 13 14 9 4 11 8 3 4 6 5 5 4 4 5 5 1 2 2 3 2 6 7 12 4 3 10 21 22 19 18
17 18 18 18 18 17 15 5 5 3 5 11 22 24 22 22 21 11 2 5 4 3 3 5 4 3 4 5 3 6 3 6 4 7 4 6 3 8 16 19 25 21 22 22
17 18 19 18 18 16 12 5 5 3 4 12 7 6 6 7 10 11 5 3 3 3 3 3 3 4 2 4 3 3 3 8 5 2 8 12 11 17 18 22 23 21 22 24
18 18 19 19 18 17 13 5 4 3 4 5 5 8 14 11 8 12 15 13 7 5 3 4 4 3 2 2 5 6 6 8 5 7 9 15 15 18 22 24 25 24 25 24
20 20 20 20 20 16 10 7 6 7 3 4 9 22 7 8 7 11 13 11 11 3 4 4 2 2 3 3 2 5 9 5 3 4 9 10 9 15 23 25 25 24 25 22
21 22 22 22 20 12 3 3 4 3 3 4 5 8 10 15 15 8 4 6 5 4 2 2 2 3 3 3 4 9 10 9 6 6 16 18 17 15 21 27 27 24 20 25
22 23 23 22 17 6 4 5 5 3 2 3 5 7 4 12 13 4 3 2 1 2 1 2 2 4 4 4 4 10 9 14 16 16 19 18 14 15 18 26 26 24 22 20
23 23 21 13 0 2 4 3 4 1 4 2 4 7 9 6 9 6 5 4 2 4 3 2 3 3 3 6 5 4 13 17 18 21 18 23 19 18 18 21 22 25 22 20
22 19 13 6 5 3 3 9 5 3 3 3 2 6 7 10 10 5 4 3 3 3 4 5 3 5 8 4 2 4 5 14 19 20 17 18 22 23 22 23 23 23 20 18
18 6 4 3 3 8 6 3 3 4 3 3 3 4 5 8 8 4 7 4 4 5 6 3 5 5 10 10 15 17 20 20 17 22 21 20 21 20 20 20 18 18 18 17
3 4 3 6 6 2 3 3 3 1 3 3 3 6 9 3 6 5 4 3 5 4 6 4 4 4 8 10 13 11 14 17 19 19 20 19 20 18 19 19 18 17 17 16
8 7 5 4 4 4 4 1 2 3 3 5 7 9 7 4 2 3 4 3 3 5 6 3 4 2 6 11 12 15 15 18 19 18 20 19 19 18 18 17 17 17 16 15
1 3 3 3 2 2 3 1 1 1 5 5 8 9 4 3 2 3 3 5 5 1 3 3 2 4 3 11 12 15 17 18 19 19 18 19 19 18 18 17 16 16 15 14
3 2 3 4 3 1 1 3 2 3 3 7 8 5 3 3 3 2 4 3 2 3 3 4 2 6 6 10 12 15 17 17 18 18 18 18 18 17 17 16 15 15 14 13
3 3 4 3 2 1 2 2 4 2 3 6 6 4 2 1 2 2 3 2 3 4 3 1 4 8 8 11 13 14 15 14 14 15 15 16 16 15 16 15 14 14 13 13
3 4 4 1 2 1 2 2 2 0 3 4 4 4 2 2 4 2 3 2 3 2 1 2 3 6 10 6 8 13 13 14 14 14 14 15 15 15 15 15 13 13 13 13
4 4 4 4 3 1 2 3 1 1 2 2 3 3 4 3 2 3 3 3 3 3 4 4 5 7 7 11 12 12 12 13 14 14 14 15 15 14 13 13 12 12 12 11
Wind_Direction
343 345 344 342 341 344 330 302 336 19 322 24 4 6 332 309 329 331 318 275 297 292 323 318 305 310 300 12 326 230 209 171 216 193 194 215 200 193 207 212 188 220 193 107
344 347 345 345 342 349 332 334 330 39 1 20 359 340 315 347 329 335 342 304 308 320 326 316 318 331 307 347 351 296 245 187 166 192 192 198 216 199 206 207 223 207 190 118
344 347 345 344 343 341 325 327 344 1 308 54 348 337 333 338 344 321 344 298 304 334 324 316 294 293 313 324 313 325 168 251 251 187 190 159 202 218 208 201 235 178 210 135
343 344 350 341 346 338 315 8 29 5 318 341 337 330 319 338 340 321 309 287 330 335 302 311 242 327 322 303 288 349 15 262 250 181 140 157 203 197 197 210 217 261 134 142
340 344 350 343 351 331 7 352 348 341 288 317 333 342 340 329 329 321 301 299 312 310 283 285 300 308 310 287 317 339 338 325 325 126 148 161 189 179 188 198 179 264 134 119
338 343 346 346 346 347 344 3 281 290 284 323 340 344 325 316 328 311 306 311 312 309 302 300 284 276 266 261 294 316 312 330 308 118 154 140 163 202 160 209 190 149 141 124
335 338 338 341 338 353 332 321 282 301 305 325 338 314 326 324 321 293 297 310 305 298 307 295 273 245 247 240 244 234 297 311 317 115 127 166 139 200 154 188 114 89 102 122
333 335 337 336 336 336 323 313 298 288 291 318 298 332 322 314 314 308 305 320 328 318 310 301 318 192 207 177 204 204 218 304 45 132 256 119 126 174 164 164 102 122 123 112
326 330 332 329 328 328 317 307 298 272 302 260 333 314 312 313 320 315 293 328 329 326 322 308 331 5 336 359 67 48 87 276 285 160 100 114 141 85 177 134 139 152 147 142
324 328 325 324 321 321 318 286 265 248 261 272 307 305 306 289 294 277 300 345 328 332 327 323 357 337 339 340 5 2 345 344 305 97 104 90 50 74 190 182 141 133 143 142
322 324 321 321 318 321 320 289 284 264 256 287 267 273 273 281 280 276 315 320 58 296 347 350 346 318 339 306 351 344 300 280 13 317 112 109 355 216 113 107 113 123 121 111
322 321 318 317 316 318 321 279 318 258 236 270 296 280 270 263 264 278 260 269 301 290 319 8 314 301 312 339 307 234 342 9 55 28 37 302 358 76 118 126 124 118 117 125
321 319 312 312 312 314 313 288 296 263 270 287 264 276 254 254 251 229 260 251 229 267 50 303 287 281 331 306 317 341 64 31 57 130 9 56 62 91 102 114 115 116 114 118
317 315 311 310 310 312 304 275 283 254 275 281 294 308 298 307 272 230 225 261 269 277 237 228 258 276 355 314 293 11 356 318 69 89 86 65 76 96 109 114 113 113 113 112
317 315 311 313 314 311 292 269 248 231 244 289 297 300 279 308 278 267 255 242 251 262 240 219 256 285 291 251 21 27 338 336 345 61 64 92 83 107 116 109 108 111 116 111
319 314 313 314 311 309 293 242 156 189 193 285 299 332 294 312 334 318 234 215 234 230 313 346 303 261 260 29 61 347 356 52 39 92 80 78 74 77 102 105 106 105 107 107
315 311 312 312 302 223 243 1 8 51 218 264 287 288 272 324 311 352 16 233 277 330 339 279 287 26 34 28 41 338 57 82 92 95 98 76 74 87 96 103 101 102 99 102
312 311 311 304 145 197 224 159 312 204 265 238 291 291 305 27 336 337 56 323 23 3 350 321 357 43 61 57 350 30 81 80 80 83 84 96 101 102 105 102 108 104 101 103
312 314 312 223 230 235 60 338 255 254 289 305 287 311 327 333 338 326 357 332 6 311 16 32 32 30 38 341 314 143 89 99 106 96 107 114 111 108 106 105 102 102 103 103
307 277 240 213 70 338 290 171 217 194 197 222 259 292 303 321 339 332 354 355 8 8 24 19 45 71 48 72 95 103 112 112 112 109 110 111 104 103 102 98 99 101 104 105
331 341 322 348 325 270 252 258 245 200 227 207 264 319 327 336 327 329 9 337 347 16 9 30 50 44 28 61 83 80 94 101 101 103 103 107 111 113 108 106 105 106 105 104
324 300 296 283 254 225 259 263 324 237 356 341 330 337 331 324 329 291 1 345 23 35 322 43 61 5 48 87 89 98 96 98 100 104 108 109 109 110 109 107 104 103 105 108
214 229 244 232 199 306 213 204 188 318 4 350 328 338 339 302 256 286 327 358 38 233 14 61 78 121 93 98 106 105 108 108 108 108 105 106 108 106 106 109 109 110 107 106
260 279 269 247 203 212 332 23 325 18 328 318 335 300 337 338 311 355 325 47 285 34 38 59 91 126 126 111 119 118 113 112 110 111 114 113 112 111 110 109 109 109 107 111
258 235 249 209 52 94 336 310 287 22 322 304 316 268 269 341 294 15 332 82 71 19 40 21 18 147 115 117 117 118 116 115 110 110 110 112 113 113 112 111 109 108 109 109
243 236 254 175 253 251 242 240 350 309 282 288 276 301 313 39 349 39 25 358 61 49 12 357 356 128 126 111 133 129 122 121 118 118 118 120 122 122 121 120 118 113 110 111
223 229 220 258 306 282 263 278 338 313 290 11 277 303 9 310 284 73 13 41 350 320 301 287 154 125 132 167 139 132 132 124 124 126 127 118 121 126 127 123 120 116 108 103